Regional Weather Roundup
Issued by NWS

Home | Current Version | Previous Version | Graphics & Text | Print | Product List | Glossary On
Versions: 1 2 3 4 5 6 7 8 9 10 11 12 13 14 15 16 17 18 19 20 21 22 23 24 25 26 27 28 29 30 31 32 33 34 35 36 37 38 39 40 41 42 43 44 45 46 47 48 49 50
000
ASUS43 KLSX 292059
RWRMO

WEATHER SUMMARY FOR MISSOURI
NATIONAL WEATHER SERVICE SPRINGFIELD MO
400 PM CDT FRI MAY 29 2015

NOTE: "FAIR" INDICATES FEW OR NO CLOUDS BELOW 12,000 FEET WITH NO
       SIGNIFICANT WEATHER AND/OR OBSTRUCTIONS TO VISIBILITY.
       CURRENT SKY AND/OR WEATHER CONDITIONS ARE NOT AVAILABLE FOR
       CHILLICOTHE AND FARMINGTON.

MOZ001>031-035>038-043-044-053-054-292200-
...NORTHERN AND WESTERN MISSOURI...

CITY           SKY/WX    TMP DP  RH WIND       PRES   REMARKS
KANSAS CTY INT CLOUDY    68  66  93 SW8       29.96F
KANSAS C DTWN  LGT RAIN  70  65  84 S12       29.95F
LEE`S SUMMIT   LGT RAIN  68  65  90 S8        29.99S
ST JOSEPH      CLOUDY    70  66  87 SW7       29.95F
CHILLICOTHE      N/A     72  67  84 VRB3      29.98F
KIRKSVILLE     CLOUDY    74  66  76 SW8       29.98F

$$
MOZ066>068-077>081-088>096-101>105-292200-
...SOUTHWEST MISSOURI...

CITY           SKY/WX    TMP DP  RH WIND       PRES   REMARKS
SPRINGFIELD    RAIN      73  67  81 NE7       29.98F
JOPLIN         RAIN      68  67  96 NW12      29.99R FOG

$$
MOZ032>034-039>042-045>050-055>058-069>072-292200-
...CENTRAL MISSOURI...

CITY           SKY/WX    TMP DP  RH WIND       PRES   REMARKS
COLUMBIA       CLOUDY    73  66  78 W6        30.01S
JEFFERSON CITY CLOUDY    75  63  66 VRB3      29.99F
ROLLA          PTSUNNY   74  66  76 CALM      30.00F
SEDALIA        CLOUDY    74  65  73 S6        30.00F
OSAGE BEACH    CLOUDY    75  63  64 E3        30.00F

$$
MOZ051-052-059>065-292200-
...EAST CENTRAL MISSOURI...

CITY           SKY/WX    TMP DP  RH WIND       PRES   REMARKS
ST LOUIS INTL  PTSUNNY   83  65  54 SW13      29.98F
SPIRIT OF STL  PTSUNNY   82  70  66 W8        29.97F
ST CHARLES     PTSUNNY   84  66  54 W15       29.96F

$$
MOZ072>076-082>087-097>100-106>115-292200-
...SOUTH CENTRAL AND SOUTHEAST MISSOURI...

CITY           SKY/WX    TMP DP  RH WIND       PRES   REMARKS
CAPE GIRARDEAU MOSUNNY   83  68  60 S12       29.99F
FARMINGTON     CLOUDY    73  64  73 W9        30.06R THUNDER
POPLAR BLUFF   MOSUNNY   84  67  56 S8        29.97F
WEST PLAINS    MOSUNNY   78  68  71 N7G16     29.99F

$$


USA.gov is the U.S. government's official web portal to all federal, state and local government web resources and services.